Regional Weather Roundup
Issued by NWS Little Rock, AR

Home | Current Version | Previous Version | Text Only | Print | Product List | Glossary Off
Versions: 1 2 3 4 5 6 7 8 9 10 11 12 13 14 15 16 17 18 19 20 21 22 23 24 25 26 27 28 29 30 31 32 33 34

000
ASUS44 KLZK 220905
RWRLZK

WEATHER ROUNDUP FOR ARKANSAS
NATIONAL WEATHER SERVICE LITTLE ROCK AR
400 AM CDT TUE MAY 22 2018

NOTE: "FAIR" INDICATES FEW OR NO CLOUDS BELOW 12,000 FEET WITH NO
SIGNIFICANT WEATHER AND/OR OBSTRUCTIONS TO VISIBILITY.

ARZ001-003-010-029-221000-
NORTHWEST ARKANSAS

CITY           SKY/WX    TMP DP  RH WIND       PRES   REMARKS
FAYETTEVILLE   FOG       63  63 100 CALM      30.01S VSB 1/2
FORT SMITH     PTCLDY    69  68  96 E5        29.98R
HARRISON       FOG       63  63 100 CALM      30.02S VSB 3/4
BENTONVILLE    CLEAR     67  65  93 CALM      30.03S
ROGERS         CLEAR     67  66  97 E5        30.03R
SILOAM SPGS    CLEAR     66  65  96 E3        30.01S
HIGHFILL       CLEAR     62  60  93 N3        30.01S
$$

ARZ004-005-016-221000-
NORTH CENTRAL ARKANSAS

CITY           SKY/WX    TMP DP  RH WIND       PRES   REMARKS
BATESVILLE     CLEAR     66  65  96 CALM      29.99F FOG
FLIPPIN        CLEAR     66  66 100 CALM      30.01S
MTN HOME       CLEAR     65  65 100 CALM      30.00S FOG
$$

ARZ040-041-221000-
WEST CENTRAL ARKANSAS

CITY           SKY/WX    TMP DP  RH WIND       PRES   REMARKS
MENA           PTCLDY   N/A N/A N/A CALM      30.01S
MOUNT IDA      CLOUDY    67  67 100 CALM      29.97F
$$

ARZ009-017-025-026-028-221000-
NORTHEAST ARKANSAS

CITY           SKY/WX    TMP DP  RH WIND       PRES   REMARKS
CORNING        FOG       70  70 100 CALM      29.99S VSB 1/4
JONESBORO      FOG       69  69 100 N3        29.98S VSB 1/2
NEWPORT        FOG       70  68  94 N3        29.98  VSB 1/2
WALNUT RIDGE   FOG       70  70 100 CALM      29.99S VSB 1/4
BLYTHEVILLE    FAIR      71  69  93 NE3       29.99S FOG
$$

ARZ022-023-033-042-044-221000-
CENTRAL ARKANSAS

CITY           SKY/WX    TMP DP  RH WIND       PRES   REMARKS
LITTLE ROCK    FOG       70  70 100 CALM      29.98S VSB 1/2
N LITTLE ROCK    N/A     69  68  98 CALM      29.94S
JACKSONVILLE   PTCLDY    68  68 100 CALM      29.97F FOG
CONWAY         FOG       68  68 100 CALM      29.98R VSB 1/2
SEARCY         FOG       66  66 100 CALM      29.99S VSB 1/2
HOT SPRINGS    CLOUDY    69  69 100 CALM      29.98S
RUSSELLVILLE   CLEAR     67  67 100 CALM      29.98R
CLINTON        CLOUDY    66  64  94 CALM      30.00S
$$

ARZ036-221000-
EAST ARKANSAS

CITY           SKY/WX    TMP DP  RH WIND       PRES   REMARKS
WEST MEMPHIS   FOG       69  69 100 CALM      29.98S VSB 1/4
$$

ARZ050-053-066-070-073-221000-
SOUTHWEST ARKANSAS

CITY           SKY/WX    TMP DP  RH WIND       PRES   REMARKS
ARKADELPHIA    FAIR      70  69  97 CALM      29.98R FOG
CAMDEN         FAIR      68  64  88 SE3       29.96S FOG
TEXARKANA      CLEAR     68  68 100 CALM      29.97S
EL DORADO      FAIR      69  69 100 CALM      29.98R
DE QUEEN       MOCLDY    71  71 100 NE3       29.96R
$$

ARZ056-057-069-221000-
SOUTHEAST ARKANSAS

CITY           SKY/WX    TMP DP  RH WIND       PRES   REMARKS
PINE BLUFF     MOCLDY    68  67  96 CALM      29.99R FOG
STUTTGART      FAIR      70  69  97 CALM      29.99R
MONTICELLO     FOG       69  68  96 CALM      29.98R VSB 1/2

$$






USA.gov is the U.S. government's official web portal to all federal, state and local government web resources and services.